Menomonie, WI

1:56 PM CST on December 05, 2019 (GMT -0600)
Menomonie

Weather History for KLUM - October, 2019

Change the Weather History Date:

Saturday, October 5, 2019

  Actual Average (KEAU) Record (KEAU)
Temperature  
Mean Temperature 45 °F -  
Max Temperature 51 °F 62 °F 84 °F (1922)
Min Temperature 40 °F 40 °F 19 °F (1952)
Degree Days  
Heating Degree Days 20    
Moisture  
Dew Point 44 °F    
Average Humidity 94    
Maximum Humidity 100    
Minimum Humidity 73    
Precipitation  
Precipitation 0.01 in - - ()
Sea Level Pressure  
Sea Level Pressure 29.92 in    
Wind  
Wind Speed 10 mph (SE)    
Max Wind Speed 25 mph    
Max Gust Speed 37 mph    
Visibility 7 miles    
Events Rain , Thunderstorm    
Averages and records for this station are not official NWS values.
T = Trace of Precipitation, MM = Missing Value Source: NWS Daily Summary

Daily Weather History Graph

Daily Weather History Graph

Search for Another Location

Airport or City:

Astronomy

Oct. 05, 2019 Rise Set
Actual Time 7:10 AM CDT 6:40 PM CDT
Civil Twilight 6:40 AM CDT 7:10 PM CDT
Nautical Twilight 6:06 AM CDT 7:43 PM CDT
Astronomical Twilight 5:32 AM CDT 8:18 PM CDT
Moon 2:50 PM CDT 11:50 PM CDT
Length of Visible Light 12h 29m
Length of Day
11h 30m
Waxing Crescent, 50% of the Moon is Illuminated
Oct 5
Waxing Crescent
Oct 13
Full
Oct 21
Last Quarter
Oct 27
New
Nov 4
First Quarter

Hourly Weather History & Observations

Time (CDT) Temp. Windchill Dew Point Humidity Pressure Visibility Wind Dir Wind Speed Gust Speed Precip Events Conditions
12:15 AM 41.2 °F 37.3 °F 37.4 °F 86% 30.23 in 10.0 mi East 5.8 mph - N/A   Clear
12:35 AM 41.0 °F 38.0 °F 37.4 °F 87% 30.23 in 10.0 mi East 4.6 mph - N/A   Clear
12:55 AM 40.5 °F 37.3 °F 37.6 °F 89% 30.22 in 10.0 mi East 4.6 mph - N/A   Clear
1:15 AM 40.6 °F 37.5 °F 37.9 °F 90% 30.20 in 10.0 mi East 4.6 mph - N/A   Clear
1:35 AM 41.0 °F 37.1 °F 37.9 °F 89% 30.22 in 10.0 mi ESE 5.8 mph - N/A   Scattered Clouds
1:55 AM 40.5 °F 36.5 °F 38.1 °F 91% 30.22 in 10.0 mi ESE 5.8 mph - N/A   Mostly Cloudy
2:15 AM 41.2 °F 36.6 °F 39.2 °F 93% 30.20 in 10.0 mi East 6.9 mph - N/A   Overcast
2:35 AM 42.1 °F 38.4 °F 39.6 °F 91% 30.20 in 10.0 mi East 5.8 mph - N/A   Overcast
2:55 AM 42.4 °F 38.1 °F 40.1 °F 91% 30.18 in 10.0 mi East 6.9 mph - N/A   Overcast
3:15 AM 42.8 °F 38.0 °F 40.5 °F 91% 30.18 in 10.0 mi ESE 8.1 mph - N/A   Light Drizzle
3:35 AM 43.0 °F 38.2 °F 41.0 °F 93% 30.17 in 10.0 mi ESE 8.1 mph - N/A   Overcast
3:55 AM 43.3 °F 39.2 °F 41.4 °F 93% 30.15 in 10.0 mi ESE 6.9 mph - N/A   Overcast
4:15 AM 43.7 °F 39.1 °F 41.5 °F 92% 30.13 in 10.0 mi ESE 8.1 mph - N/A   Overcast
4:35 AM 43.7 °F 37.7 °F 41.7 °F 93% 30.12 in 10.0 mi ESE 11.5 mph 17.3 mph N/A Rain Rain
4:55 AM 43.7 °F 37.7 °F 41.5 °F 92% 30.11 in 10.0 mi ESE 11.5 mph - N/A Rain Light Rain
5:15 AM 43.7 °F 36.9 °F 41.5 °F 92% 30.09 in 10.0 mi ESE 13.8 mph 17.3 mph N/A Rain Light Rain
5:35 AM 43.2 °F 36.6 °F 41.4 °F 93% 30.08 in 10.0 mi ESE 12.7 mph - N/A Rain Light Rain
5:55 AM 43.0 °F 36.4 °F 41.4 °F 94% 30.07 in 7.0 mi ESE 12.7 mph 18.4 mph N/A Rain Rain
6:15 AM 42.8 °F 36.6 °F 41.4 °F 95% 30.06 in 7.0 mi ESE 11.5 mph - N/A Rain Rain
6:35 AM 42.4 °F 37.0 °F 41.5 °F 97% 30.05 in 5.0 mi ESE 9.2 mph - N/A Rain Rain
6:55 AM 42.4 °F 35.7 °F 41.9 °F 98% 30.04 in 7.0 mi ESE 12.7 mph 16.1 mph N/A Rain Rain
7:15 AM 42.4 °F 37.5 °F 42.1 °F 99% 30.03 in 5.0 mi SE 8.1 mph 17.3 mph N/A Rain Rain
7:35 AM 42.4 °F 37.0 °F 42.1 °F 99% 30.03 in 5.0 mi ESE 9.2 mph - N/A Rain Light Rain
7:55 AM 42.8 °F 37.5 °F 42.4 °F 99% 30.03 in 7.0 mi ESE 9.2 mph - N/A Rain Light Rain
8:15 AM 42.8 °F 38.0 °F 42.4 °F 99% 30.04 in 3.0 mi ESE 8.1 mph - N/A Rain Rain
8:35 AM 42.8 °F 38.6 °F 42.8 °F 100% 30.02 in 4.0 mi East 6.9 mph - N/A Rain , Thunderstorm Rain
8:55 AM 42.8 °F 38.0 °F 42.8 °F 100% 30.00 in 3.0 mi East 8.1 mph - N/A Rain Rain
9:15 AM 43.0 °F 36.8 °F 43.0 °F 100% 29.99 in 4.0 mi ESE 11.5 mph 17.3 mph N/A Rain Rain
9:35 AM 43.0 °F 37.2 °F 43.0 °F 100% 29.98 in 3.0 mi East 10.4 mph 17.3 mph N/A Rain Rain
9:55 AM 43.2 °F 36.6 °F 43.2 °F 100% 29.98 in 4.0 mi ESE 12.7 mph 18.4 mph N/A Rain Rain
10:15 AM 43.3 °F 35.8 °F 43.3 °F 100% 29.94 in 4.0 mi ESE 16.1 mph 21.9 mph N/A Rain Rain
10:35 AM 43.7 °F 35.0 °F 43.7 °F 100% 29.91 in 4.0 mi ESE 21.9 mph 29.9 mph N/A Rain Rain
10:55 AM 43.7 °F 34.7 °F 43.7 °F 100% 29.85 in 4.0 mi ESE 23.0 mph 35.7 mph N/A Rain Rain
11:15 AM 44.1 °F 34.8 °F 44.1 °F 100% 29.82 in 4.0 mi ESE 25.3 mph 36.8 mph N/A Rain Rain
11:35 AM 44.8 °F 37.7 °F 44.8 °F 100% 29.87 in 10.0 mi SE 16.1 mph 27.6 mph N/A Rain Light Rain
11:55 AM 45.5 °F 38.1 °F 45.3 °F 99% 29.84 in 10.0 mi SE 18.4 mph 25.3 mph N/A   Overcast
12:15 PM 45.7 °F 38.8 °F 45.5 °F 99% 29.84 in 10.0 mi SE 16.1 mph 26.5 mph N/A   Overcast
12:35 PM 45.9 °F 39.7 °F 45.7 °F 99% 29.83 in 2.0 mi SE 13.8 mph 25.3 mph N/A Rain Rain
12:55 PM 46.0 °F 38.5 °F 45.9 °F 99% 29.82 in 2.5 mi SE 19.6 mph 25.3 mph N/A Rain Light Rain
1:15 PM 46.0 °F 39.9 °F 45.9 °F 99% 29.80 in 3.0 mi SE 13.8 mph - N/A   Overcast
1:35 PM 46.4 °F 40.4 °F 46.4 °F 100% 29.79 in 4.0 mi SE 13.8 mph - N/A Rain Light Rain
1:55 PM 46.6 °F - 46.4 °F 99% 29.78 in 5.0 mi SE 13.8 mph 18.4 mph N/A   Overcast
2:15 PM 46.6 °F - 46.4 °F 99% 29.77 in 1.8 mi SE 13.8 mph 18.4 mph N/A Rain Light Rain
2:35 PM 46.9 °F - 46.9 °F 100% 29.76 in 2.0 mi SE 11.5 mph - N/A Rain Light Rain
2:55 PM 47.3 °F - 47.3 °F 100% 29.75 in 2.0 mi SE 9.2 mph - N/A Rain Light Rain
3:15 PM 47.5 °F - 47.5 °F 100% 29.74 in 2.5 mi SE 9.2 mph - N/A Rain Rain
3:35 PM 47.8 °F - 47.8 °F 100% 29.74 in 3.0 mi SE 11.5 mph - N/A Rain Rain
3:55 PM 48.2 °F - 48.2 °F 100% 29.73 in 3.0 mi SE 10.4 mph - N/A Rain Light Rain
4:15 PM 48.6 °F - 48.6 °F 100% 29.71 in 2.5 mi SE 10.4 mph 17.3 mph N/A   Overcast
4:35 PM 48.9 °F - 48.9 °F 100% 29.71 in 10.0 mi SSE 13.8 mph 17.3 mph N/A   Overcast
4:55 PM 49.1 °F - 49.1 °F 100% 29.71 in 3.0 mi SSE 12.7 mph - N/A Rain Rain
5:15 PM 49.5 °F - 49.5 °F 100% 29.71 in 2.5 mi SSE 12.7 mph 17.3 mph N/A   Overcast
5:35 PM 50.0 °F - 50.0 °F 100% 29.71 in 2.5 mi South 11.5 mph 19.6 mph N/A Rain Light Rain
5:55 PM 50.2 °F - 50.2 °F 100% 29.71 in 10.0 mi SSE 13.8 mph - N/A   Overcast
6:15 PM 50.2 °F - 50.2 °F 100% 29.71 in 10.0 mi South 13.8 mph 20.7 mph N/A   Overcast
6:35 PM 50.4 °F - 50.4 °F 100% 29.71 in 10.0 mi South 12.7 mph 18.4 mph N/A   Overcast
6:55 PM 50.9 °F - 50.9 °F 100% 29.72 in 10.0 mi SSW 13.8 mph 21.9 mph N/A   Overcast
7:15 PM 50.9 °F - 50.2 °F 97% 29.72 in 10.0 mi SW 12.7 mph 17.3 mph N/A   Overcast
7:35 PM 50.5 °F - 48.2 °F 92% 29.73 in 10.0 mi SW 13.8 mph - N/A   Overcast
7:55 PM 50.5 °F - 46.9 °F 87% 29.73 in 10.0 mi SSW 11.5 mph 21.9 mph 0.01 in   Overcast
8:15 PM 50.4 °F - 46.6 °F 87% 29.74 in 10.0 mi SW 13.8 mph 20.7 mph N/A   Overcast
8:35 PM 49.3 °F - 47.3 °F 93% 29.74 in 5.0 mi SW 13.8 mph - N/A Rain Light Rain
8:55 PM 49.1 °F - 47.3 °F 93% 29.74 in 10.0 mi SW 9.2 mph - N/A   Overcast
9:15 PM 49.5 °F - 46.4 °F 89% 29.75 in 10.0 mi SW 15.0 mph - N/A   Overcast
9:35 PM 49.5 °F - 45.3 °F 86% 29.76 in 10.0 mi WSW 17.3 mph 25.3 mph N/A   Overcast
10:15 PM 48.6 °F - 42.4 °F 79% 29.78 in 10.0 mi SW 20.7 mph 25.3 mph N/A   Mostly Cloudy
10:35 PM 48.9 °F - 40.5 °F 73% 29.79 in 10.0 mi WSW 21.9 mph 32.2 mph N/A   Mostly Cloudy
10:55 PM 48.4 °F - 39.9 °F 73% 29.80 in 10.0 mi West 21.9 mph 31.1 mph N/A   Mostly Cloudy
11:15 PM 48.2 °F - 40.3 °F 74% 29.81 in 10.0 mi WSW 11.5 mph 20.7 mph N/A   Overcast
11:35 PM 47.7 °F - 40.8 °F 77% 29.82 in 10.0 mi WSW 10.4 mph - N/A   Overcast
11:55 PM 47.8 °F - 40.6 °F 76% 29.83 in 10.0 mi WSW 15.0 mph 18.4 mph N/A   Overcast